2021-022F (47937 NORAD) Tracking and Keplerian Element Data

This shows tracking and keplerian element data for the satellite.

Feedback or suggestion? Click here.




ElementValue
Catalog47937
Name2021-022F
Epoch Orbit444
Epoch Day110.95510353
Epoch Year2021
RAAN14.3104
Inclination97.5617
Eccentricity0.0017553
Argument of Perigee137.9773
Mean Anonmoly350.7378
Mean Motion15.06867285
Decay Rate1.201E-05
L11 47937U 21022F 21110.95510353 .00001201 00000-0 84401-4 0 9998
L22 47937 97.5617 14.3104 0017553 137.9773 350.7378 15.06867285 4441



Live tracking and technical data element details for 2021-022F (NORAD 47937). 2021-022F can be tracked NOW for your location showing map with azimuth and elevation plus other details from your city location.







IsCatalogInMostPopularTable: catalog: 47937, numindb: 81
Update: records affected: 1



GetName: 47937 2021-022F

Hit Count: updated at: Sun, 11 Jun 2023 01:03:31 GMT